Location: Ciserano
(45.5833°N, 9.6000°E)
Time: 12:22:53
(UTC+00:00)

ATLAS 2AS CENTAUR R/B - Pass Details

Date: 29 November 2020
Orbit: 943 x 1268 km, 63.7° (Epoch: 22 January)

Event Time Altitude Azimuth Distance (km) Brightness Sun altitude
Exits shadow 04:15:38 22° 222° (SW) 2,436 4.2 -24.5°
Maximum altitude 04:21:08 82° 308° (NW) 1,282 2.9 -23.6°
Drops below altitude 10° 04:29:02 10° 37° (NE) 3,217 5.5 -22.2°
Sets 04:31:46 0° 39° (NE) 4,157 6.2 -21.7°
